Klamath Falls, OR

1:35 AM PDT on September 27, 2016 (GMT -0700)
Klamath Falls International

Weather History for KLMT - November, 2011

Change the Weather History Date:

Friday, November 25, 2011

  Actual Average Record
Temperature  
Mean Temperature 36 °F 32 °F  
Max Temperature 45 °F 42 °F 59 °F (1949)
Min Temperature 26 °F 23 °F -5 °F (1993)
Degree Days  
Heating Degree Days 29 33  
Month to date heating degree days 757 720  
Since 1 July heating degree days 1542 1636  
Cooling Degree Days 0 0  
Month to date cooling degree days 0 0  
Year to date cooling degree days 104 169  
Moisture  
Dew Point 30 °F    
Average Humidity 80    
Maximum Humidity 92    
Minimum Humidity 53    
Precipitation  
Precipitation 0.01 in 0.08 in 1.25 in (1960)
Month to date precipitation 0.45 1.79  
Year to date precipitation 6.59 13.11  
Sea Level Pressure  
Sea Level Pressure 30.30 in    
Wind  
Wind Speed 5 mph (WSW)    
Max Wind Speed 22 mph    
Max Gust Speed 26 mph    
Visibility 10 miles    
Events      
T = Trace of Precipitation, MM = Missing Value Source: NWS Daily Summary

Daily Weather History Graph

Daily Weather History Graph

Search for Another Location

Airport or City:

Trip Planner

Search our weather history database for the weather conditions in past years. The results will help you decide how hot, cold, wet, or windy it might be!

Date:

Astronomy

Nov. 25, 2011 Rise Set
Actual Time 7:08 AM PST 4:38 PM PST
Civil Twilight 6:38 AM PST 5:09 PM PST
Nautical Twilight 6:03 AM PST 5:43 PM PST
Astronomical Twilight 5:30 AM PST 6:17 PM PST
Moon 7:43 AM PST (11/25) 5:10 PM PST (11/25)
Length of Visible Light 10h 31m
Length of Day
9h 29m
New Moon, 0% of the Moon is Illuminated
Nov 25
New Moon
Dec 2
First Quarter
Dec 10
Full
Dec 17
Last Quarter
Dec 24
New

Hourly Weather History & Observations

Time (PST) Temp. Windchill Dew Point Humidity Pressure Visibility Wind Dir Wind Speed Gust Speed Precip Events Conditions
12:53 AM 39.0 °F 31.8 °F 36.0 °F 89% 30.08 in 10.0 mi West 11.5 mph - 0.01 in   Overcast
1:53 AM 39.2 °F 34.2 °F 35.6 °F 87% 30.10 in 10.0 mi Variable 6.9 mph - N/A   Overcast
2:53 AM 39.0 °F 34.8 °F 33.1 °F 79% 30.14 in 10.0 mi South 5.8 mph - N/A   Overcast
3:02 AM 39.2 °F - 32.0 °F 75% 30.14 in 10.0 mi Calm Calm - N/A   Overcast
3:53 AM 37.0 °F 28.1 °F 32.0 °F 82% 30.16 in 10.0 mi WSW 15.0 mph - N/A   Clear
4:53 AM 35.1 °F 24.5 °F 30.9 °F 85% 30.16 in 10.0 mi West 18.4 mph - N/A   Clear
5:53 AM 35.1 °F 27.9 °F 32.0 °F 89% 30.21 in 10.0 mi WSW 9.2 mph - N/A   Clear
6:00 AM 35.6 °F 28.6 °F 32.0 °F 87% 30.19 in 10.0 mi WSW 9.2 mph - N/A   Scattered Clouds
6:53 AM 37.0 °F 32.4 °F 32.0 °F 82% 30.23 in 10.0 mi Variable 5.8 mph - N/A   Mostly Cloudy
7:53 AM 37.0 °F 30.4 °F 32.0 °F 82% 30.26 in 10.0 mi WSW 9.2 mph - N/A   Mostly Cloudy
8:53 AM 37.9 °F 34.4 °F 34.0 °F 86% 30.30 in 10.0 mi South 4.6 mph - N/A   Mostly Cloudy
9:53 AM 39.9 °F 35.1 °F 34.0 °F 79% 30.30 in 10.0 mi SW 6.9 mph - N/A   Mostly Cloudy
11:53 AM 42.1 °F 39.2 °F 32.0 °F 67% 30.33 in 10.0 mi WNW 4.6 mph - N/A   Scattered Clouds
12:53 PM 43.0 °F 40.3 °F 30.9 °F 62% 30.33 in 10.0 mi Variable 4.6 mph - N/A   Scattered Clouds
1:53 PM 45.0 °F - 30.0 °F 56% 30.33 in 10.0 mi Calm Calm - N/A   Mostly Cloudy
2:53 PM 44.1 °F - 28.0 °F 53% 30.35 in 10.0 mi Calm Calm - N/A   Mostly Cloudy
3:53 PM 44.1 °F - 28.9 °F 55% 30.36 in 10.0 mi Calm Calm - N/A   Mostly Cloudy
4:53 PM 39.0 °F - 30.9 °F 73% 30.38 in 10.0 mi Calm Calm - N/A   Mostly Cloudy
5:53 PM 30.9 °F - 28.0 °F 89% 30.42 in 10.0 mi Calm Calm - N/A   Scattered Clouds
6:53 PM 30.2 °F - 26.6 °F 86% 30.39 in 10.0 mi Calm Calm - N/A   Scattered Clouds
7:53 PM 30.0 °F - 26.1 °F 85% 30.45 in 10.0 mi Calm Calm - N/A   Scattered Clouds
8:53 PM 28.0 °F 24.2 °F 26.1 °F 92% 30.47 in 10.0 mi NW 3.5 mph - N/A   Scattered Clouds
9:53 PM 28.4 °F 24.6 °F 26.6 °F 93% 30.43 in 10.0 mi North 3.5 mph - N/A   Scattered Clouds
10:53 PM 28.0 °F 24.2 °F 25.0 °F 88% 30.48 in 10.0 mi East 3.5 mph - N/A   Clear
11:53 PM 28.0 °F 21.7 °F 27.0 °F 96% 30.49 in 10.0 mi ESE 5.8 mph - N/A   Clear